Regional Weather Roundup
Issued by NWS Wakefield, VA

Home | Current Version | Previous Version | Text Only | Print | Product List | Glossary Off
Versions: 1 2 3 4 5 6 7 8 9 10 11 12 13 14 15 16 17 18 19 20 21 22 23 24 25 26 27 28 29 30 31 32 33 34 35 36 37 38 39 40 41 42 43 44 45 46 47 48 49 50

157
ASUS41 KAKQ 282015
RWRAKQ

REGIONAL WEATHER ROUNDUP
NATIONAL WEATHER SERVICE WAKEFIELD VA
400 PM EDT WED JUN 28 2017

Note: "fair" indicates few or no clouds below 12,000 feet with no
significant weather and/or obstructions to visibility. * = Denotes
station may not report precipitation (e.g., rain,snow,etc.),
thunder or fog.

VAZ042-051-052>054-056-282100-
NORTHERN VIRGINIA

CITY           SKY/WX    TMP DP  RH WIND       PRES   REMARKS
WASH NATIONAL  MOSUNNY   82  46  28 SW9       30.16F
DULLES         PTSUNNY   80  46  30 S6        30.16F
FORT BELVOIR   SUNNY     82  48  30 NW6       30.16S
QUANTICO       PTSUNNY   80  54  40 S9        30.18S
FREDERICKSBRG* PTSUNNY   82  53  36 S9        30.16S
STAFFORD*      SUNNY     80  47  31 SW5       30.21S
WARRENTON      MOSUNNY   82  43  25 S6        30.16F
CULPEPER*      SUNNY     80  51  36 W5        30.17S
MANASSAS*      MOSUNNY   79  51  37 CALM      30.17F
LEESBURG*      SUNNY     81  52  36 CALM      30.18S
WINCHESTER     SUNNY     77  45  31 CALM      30.15F
FRONT ROYAL*   PTCLDY    79  50  36 CALM      30.15F
LURAY*         PTCLDY    77  50  38 SE5       30.16F
$$

VAZ048-049-060>072-079>083-282100-
CENTRAL AND SOUTH CENTRAL VIRGINIA

CITY           SKY/WX    TMP DP  RH WIND       PRES   REMARKS
RICHMOND       PTSUNNY   80  50  34 SW9       30.18F
CHESTERFIELD*  NOT AVBL
PETERSBURG*    SUNNY     80  46  30 CALM      30.18F
HANOVER        MOSUNNY   80  49  33 CALM      30.19F
TAPPAHANNOCK*  MOSUNNY   81  35  19 S3        30.19S
QUINTON*       FAIR      78  52  39 SE7       30.18F
CHARLOTTSVILLE SUNNY     81  49  32 VRB6      30.16F
GORDONSVILLE*  CLEAR     81  49  32 SW6       30.16F
ORANGE*        SUNNY     81  50  34 W3        30.16F
LOUISA*        SUNNY     82  52  34 SW3       30.16F
BUMPASS*       FAIR      78  52  40 SE5       30.18S
FARMVILLE*     SUNNY     82  38  20 SE3       30.17S
CREWE*         FAIR      79  37  22 S3        30.18F
FORT PICKETT*  FAIR     N/A N/A N/A S6        30.19S
CHASE CITY*    FAIR      79  50  35 NW6       30.19S
CLARKSVILLE*   FAIR      79  55  44 SE3       30.19F
SOUTH HILL*    SUNNY     80  53  39 NW3       30.24F
LAWRENCEVILLE* FAIR      80  50  35 W3        30.18F
EMPORIA*       SUNNY     81  50  34 SE5       30.20S
$$

VAZ088>098-282100-
SOUTHEAST VIRGINIA

CITY           SKY/WX    TMP DP  RH WIND       PRES   REMARKS
NORFOLK        SUNNY     79  53  40 NE7       30.19S
VIRGINIA BEACH MOSUNNY   75  51  43 E9        30.20R
NORFOLK NAVAL  MOSUNNY   80  55  42 NE10      30.20F
WEST POINT*    SUNNY     80  46  30 S6        30.20S
SALUDA*        FAIR      76  55  48 SE5       30.19S
NEWPORT NEWS   SUNNY     79  53  40 SE9       30.19S
LANGLEY AFB    NOT AVBL
FORT EUSTIS    MOSUNNY   83  55  37 N7        30.16F
WILLIAMSBURG*  SUNNY     82  52  34 CALM      30.19F
HR EXEC AP*    MOCLDY    81  55  41 SE3       30.15F
FRANKLIN*      SUNNY     81  50  34 N5        30.18F
US460-WAKEFLD  SUNNY     82  50  32 W6        30.18F
$$

VAZ020-022-025-037-045-282100-
WEST CENTRAL AND SOUTHWEST VIRGINIA

CITY           SKY/WX    TMP DP  RH WIND       PRES   REMARKS
STAUNTON*      SUNNY     76  49  39 NW6       30.19F
WAYNESBORO*    CLEAR     75  47  36 CALM      30.19F
HOT SPRINGS VA CLOUDY    68  32  26 SW5       30.28S
LYNCHBURG      SUNNY     78  48  34 S5        30.18F
DANVILLE       SUNNY     79  55  43 VRB3      30.18F
SOUTH BOSTON*  FAIR      80  49  33 CALM      30.19F
MARTINSVILLE   SUNNY     79  54  41 SE3       30.21F
ROANOKE        MOSUNNY   81  45  28 S8        30.19F
BLACKSBURG     CLOUDY    76  47  36 SW3       30.24F
DUBLIN*        SUNNY     79  36  21 NW3       30.21F
MARION*        SUNNY     78  44  29 W7        30.24F
HILLSVILLE*    CLOUDY    74  51  42 CALM      30.22F
RICHLANDS*     FAIR      75  52  44 W5        30.22F
WISE*          SUNNY     77  45  31 CALM      30.22F
ABINGDON*      SUNNY     81  49  33 S5        30.19S
$$

MDZ021>025-VAZ099-100-282100-
SOUTHERN MARYLAND AND THE DELMARVA PENINSULA

CITY           SKY/WX    TMP DP  RH WIND       PRES   REMARKS
PATUXENT RIVER PTSUNNY   76  52  43 SE10      30.18S
BAY BRIDGE APT SUNNY     77  50  38 SW5       30.17S
LEONARDTOWN    PTSUNNY   77  50  38 S5        30.19F
DOVER          SUNNY     79  54  42 W5        30.15R
GEORGETOWN     MOSUNNY   80  44  27 NW8       30.18R
EASTON         SUNNY     79  46  31 N5        30.21S
CAMBRIDGE      SUNNY     79  48  34 VRB5      30.18S
SALISBURY      SUNNY     78  46  32 VRB5      30.18R
OCEAN CITY     SUNNY     72  57  59 S6        30.20R
WALLOPS ISLAND SUNNY     76  58  53 S13       30.19S
ACCOMACK*      SUNNY     78  43  29 W8        30.20S
$$

NCZ012>017-030>032-282100-
NORTH CENTRAL AND EASTERN NORTH CAROLINA

CITY           SKY/WX    TMP DP  RH WIND       PRES   REMARKS
ROANOKE RAPIDS FAIR      81  52  36 CALM      30.19F
RALEIGH        MOSUNNY   83  52  34 NE7G17    30.19F
ELIZABETH CITY MOSUNNY   79  59  50 E10       30.19S
AHOSKIE*         N/A     80  51  37 CALM      30.19F
EDENTON*       MOSUNNY   82  60  47 SE5       30.19S
CURRITUCK*     SUNNY     78  55  44 NE8       30.21S
KILL DEVIL HLS SUNNY     76  59  56 E5        30.19F
MANTEO         SUNNY     76  61  59 E10       30.20F
CAPE HATTERAS  NOT AVBL
TARBORO*       NOT AVBL
GOLDSBORO      SUNNY     85  53  33 NW7       30.16F
WASHINGTON     MOSUNNY  N/A N/A N/A NW3       30.18F
GREENVILLE     MOSUNNY   82  52  34 NE5       30.19S
NEW BERN       SUNNY     83  54  36 NE6       30.18S
WILMINGTON     SUNNY     84  56  38 VRB6      30.16S
$$

VAZ048-282100-
ELSEWHERE

CITY           SKY/WX    TMP DP  RH WIND       PRES   REMARKS
HARRISBURG PA  PTSUNNY   77  47  34 CALM      30.14S
BALTIMORE      MOSUNNY   80  45  28 W5        30.15F
ANNAPOLIS      SUNNY     74  55  51 SE10      30.16F
ANDREWS AFB    MOSUNNY   80  46  30 CALM      30.16S
PHILADELPHIA   MOSUNNY   78  46  32 VRB5      30.14S
HENDERSON NC   SUNNY     77  51  39 CALM      30.20F
GREENSBORO     PTSUNNY   80  57  45 VRB6      30.18F
ROCKY MOUNT    SUNNY     82  52  35 CALM      30.18F
$$

VAZ100-282100-
MARINE

STATION/POSITION TIME  TEMP    WIND        PRES    WAVE   SWELL
                       AIR SEA DIR/SP/G            HT/PER HT/PER
                 (UTC) (F)     (DEG/KT/KT) (MB)    (FT/S) (FT/S)
BRANDYWINE LGT   1948          220/  4/  5   N/A
CAPE MAY NJ      1948   74 69  290/  7/  9 1021.2R
LEWES DE         1948   73 72   30/  3/  4 1021.6S
15NM E FENWICK I 1950   70 71  160/  4/  6 1022.7R   1/ 8
OCEAN-CITY-INLET 1948   72 66  170/  5/  8 1022.7R
WACHAPREAGUE VA  1948   78 82  230/  5/  7 1022.4R
THOMAS POINT MD  2000   74 78  150/  8/ 10   N/A
GOOSES REEF MD   2000   75 78  140/  6/ 10 1022.6    1
COVE POINT MD    1948   73     170/  8/ 10 1022.6S
SOLOMONS ISLAND  1948   74 79  130/  7/ 12   N/A
BISHOPS HEAD MD  1948   74 82  250/  9/ 11 1022.2S
PINEY POINT MD   1948          310/  7/  8   N/A
POTOMAC MD       2000   74 80   90/  4/  6 1021.5    1
CAMBRIDGE MD     1948   79 82              1022.6F
LEWISETTA VA     1948   74 79  100/  6/  7 1022.1F
RAPPAHANNOCK LGT 1948           30/  5/  6 1023.3R
STINGRAY PT      1950   74     140/  6/  8 1022.8R
YORK RVR RNG VA  1948   74     140/  6/  7 1022.9F
YORKTOWN VA      1948   74 79   80/ 10/ 11 1022.0F
JAMESTOWN VA     2000   78 83  290/  4/  6   N/A     0
DOMINION TERM VA 1948   76      50/  4/ 10 1022.5F
KIPTOPEKE VA     1948      74  180/  8/  9   N/A
CHES BAY BRIDGE  1948   72 74  120/ 11/ 12 1022.6S
CAPE HENRY VA    1948   72     100/  8/ 10   N/A
WILLOUBY STN VA  1948   73      70/  8/ 10 1022.4F
S CRANEY ISL VA  1948   76      50/  6/  7 1022.2S
CAPE HENRY BUOY  2000      74                N/A     2/ 4
1ST LANDING BUOY 2000   73 74              1022.6    1/ 3
CAPE CHARLES BUO 1951      73                N/A     2/10
64NM E OF VA BCH 1950   71 74   20/  8/ 10 1023.1F   3/ 5   2/ 5
DUCK PIER NC     1948   72 72   50/  9/ 10 1022.3F
44100 DUCK FRF   1905      73                N/A     3/ 5
OREGON INLET NC  1948           30/  9/ 12   N/A
HATTERAS NC      1948   78 78   30/  8/ 11 1021.7S
DIAMOND SHLS NC  1950   78 83   30/ 10/ 14 1021.6F   2/ 7   2/ 7
CAPE LOOKOUT NC  2000   79      60/ 12/ 14 1021.3F
$$




USA.gov is the U.S. government's official web portal to all federal, state and local government web resources and services.